Location: Peebles
(55.6412°N, 3.1714°W)
Time: 18:35:55
(UTC+01:00)

Envisat - Pass Details

Date: 26 February 2024
Orbit: 762 x 764 km, 98.3° (Epoch: 20 April)

Event Time Altitude Azimuth Distance (km) Brightness Sun altitude
Rises 06:07:30 0° 9° (N) 3,247 6.4 -9.9°
Reaches altitude 10° 06:10:44 10° 347° (NNW) 2,316 5.3 -9.4°
Maximum altitude 06:13:33 15° 314° (NW) 1,978 4.7 -9.0°
Enters shadow 06:16:10 11° 282° (WNW) 2,271 4.8 -8.7°
